User: anonymous   Login
Location: Caltech
(34.1382°N, 118.1253°W)
Time: 14:00:15
(UTC-08:00)
Language:

Cosmos 1408 Rocket - Orbit

View from above orbital plane
View from above orbital plane
View from above satellite
View from above satellite

Ground track
Ground track

The orbit data is extracted from the following two-line orbital elements,

1 13553U 82092B   14329.19840808  .00000432  00000-0  49299-4 0   767
2 13553 082.5696 024.9996 0020337 251.5153 161.0445 14.83685249738370
Epoch (UTC): 25 November 2014 04:45:42
Eccentricity: 0.0020337
inclination: 82.5696°
perigee height: 603 km
apogee height: 632 km
right ascension of ascending node: 24.9996°
argument of perigee: 251.5153°
revolutions per day: 14.83685249
mean anomaly at epoch: 161.0445°
orbit number at epoch: 73837

The dashed part of the orbit path shows where the satellite is in the earth's shadow,  

DLR